Regional Weather Roundup
Issued by NWS

Home | Current Version | Previous Version | Graphics & Text | Print | Product List | Glossary On
Versions: 1 2 3 4 5 6 7 8 9 10 11 12 13 14 15 16 17 18 19 20 21 22 23 24 25 26 27 28 29 30 31 32 33 34 35 36 37 38 39 40 41 42 43 44 45 46 47 48 49 50
000
ASUS43 KBIS 240910
RWRND

NORTH DAKOTA REGIONAL WEATHER ROUNDUP
NATIONAL WEATHER SERVICE BISMARCK ND
400 AM CDT THU AUG 24 2017

NOTE: "FAIR" INDICATES FEW OR NO CLOUDS BELOW 12,000 FEET WITH NO
SIGNIFICANT WEATHER AND/OR OBSTRUCTIONS TO VISIBILITY.


NDZ001>003-009>011-017-241000-
NORTHWEST NORTH DAKOTA

CITY           SKY/WX    TMP DP  RH WIND       PRES   REMARKS
WILLISTON      CLEAR     59  53  80 E9        29.96S
MINOT          CLEAR     54  50  86 E9        30.01S
MINOT AFB      CLEAR     54  50  86 E10       30.00S
$$

NDZ018>021-031>035-040>046-241000-
SOUTHWEST NORTH DAKOTA

CITY           SKY/WX    TMP DP  RH WIND       PRES   REMARKS
BISMARCK       CLEAR     58  56  93 E10       29.98S
DICKINSON      CLEAR     61  58  90 S9        29.95S
GARRISON         N/A     56  56 100 E9        29.98S
HETTINGER ARPT CLEAR     52  50  93 S3        29.99R
$$

NDZ004>008-012>016-024-026-027-054-241000-
NORTHEAST NORTH DAKOTA

CITY           SKY/WX    TMP DP  RH WIND       PRES   REMARKS
GRAND FORKS    CLOUDY    53  53 100 E6        30.10S
GRND FRKS AFB  MOCLDY    48  48 100 NE3       30.11R
DEVILS LAKE    PTCLDY    53  51  93 E12       30.08S
$$

NDZ022-023-025-028>030-036>039-047>053-241000-
SOUTHEAST NORTH DAKOTA

CITY           SKY/WX    TMP DP  RH WIND       PRES   REMARKS
FARGO          MOCLDY    56  54  93 NE3       30.07R
JAMESTOWN      CLEAR     55  51  86 E10       30.03S
$$





USA.gov is the U.S. government's official web portal to all federal, state and local government web resources and services.